www.pogodaiklimat.ru

Погода и климат >> Архив погоды >> Пакистан >> Ормара


ПОГОДА в Ормаре

  • Прогноз погоды в Ормаре
  • Монитор погоды в Ормаре

АРХИВ ПОГОДЫ в Ормаре

Время (UTC), дата Ветер
(напр.,м/с)
 
Видим.   Явления Облачность Т
(С)
Тd
(С)
f
(%)
Тe
(С)
Тes
(С)
Комфортность P
(гПа)
Po
(гПа)
Тmin
(С)
Tmax
(С)
R
(мм)
R24
(мм)
S
(см)
00 10.09 З 1 1000 м дымка 3/3 600 м
[St]
+27.0 +25.6 92 +40 +40 очень
душно
1001.1 999.8
03 10.09 З 3 2000 м дым 8/3 600 м
[St Ci fib]
+29.0 +26.9 88 +45 +46 опасность
перегрева
1003.1 1001.8 +25.5
06 10.09 ЮЗ 6 2000 м мгла 5/0
[Ci fib]
+32.0 +26.5 73 +49 +54 опасность
перегрева
1003.0 1001.7
09 10.09 ЮЗ 7 2000 м мгла 3/0
[Ci fib]
+31.5 +26.0 73 +47 +51 опасность
перегрева
1000.9 999.8
12 10.09 ЮЗ 7 2000 м мгла 5/0
[Ci fib]
+31.0 +25.4 72 +45 +46 опасность
перегрева
999.1 997.8 +32.0
15 10.09 0 н/о
18 10.09 0 н/о
03 11.09 З 3 2000 м дым 9/6 600 м
[St Ci fib]
+29.0 +24.8 78 +41 +42 опасность
перегрева
1004.9 1003.6 +24.0
06 11.09 ЮЗ 6 4000 м мгла 6/0
[Ci fib]
+31.5 +26.0 73 +47 +52 опасность
перегрева
1005.9 1004.6
09 11.09 ЮЗ 6 2000 м мгла 3/0
[Ci fib]
+32.5 +26.3 70 +49 +55 опасность
перегрева
1003.2 1002.1
12 11.09 ЮЗ 8 2000 м пыль ясно +31.5 +26.0 73 +47 +48 опасность
перегрева
1002.3 1001.0 +32.5
03 12.09 З 2 2000 м дым 5/3 600 м
[St Ci fib]
+29.0 +24.5 77 +41 +43 опасность
перегрева
1005.8 1004.5 +24.5
06 12.09 ЮЗ 6 2000 м мгла 5/5 600 м
[St]
+31.0 +25.4 72 +45 +48 опасность
перегрева
1006.2 1004.9
09 12.09 ЮЗ 12 2000 м пыль 3/3 600 м
[St]
+32.0 +26.5 73 +49 +49 опасность
перегрева
1004.0 1002.9
12 12.09 ЮЗ 9 2000 м пыль ясно +31.0 +25.4 72 +45 +45 опасность
перегрева
1002.0 1000.7 +32.0
03 13.09 З 4 2000 м дым 8/3 600 м
[St Ac trans Ci fib]
+29.0 +25.5 81 +43 +43 опасность
перегрева
1006.3 1005.0 +25.0
06 13.09 ЮЗ 7 2000 м мгла 3/3 600 м
[St]
+31.5 +24.4 66 +44 +47 опасность
перегрева
1006.9 1005.6
09 13.09 ЮЗ 10 2000 м пыль ясно +31.0 +24.6 69 +44 +44 опасность
перегрева
1004.4 1003.3
12 13.09 ЮЗ 8 2000 м пыль 8/8 600 м
[]
+31.0 +25.4 72 +45 +45 опасность
перегрева
1003.1 1001.8 +31.5
03 14.09 З 2 2000 м дым 10/9 600 м
[St Ci fib]
+28.5 +25.7 85 +42 +43 опасность
перегрева
1006.9 1005.6 +24.0
06 14.09 З 7 4000 м мгла 8/3 600 м
[St Ac trans Ci fib]
+31.5 +25.2 69 +45 +47 опасность
перегрева
1006.9 1005.6
09 14.09 ЮЗ 9 2000 м пыль 3/3 600 м
[St]
+32.0 +25.8 70 +47 +48 опасность
перегрева
1004.3 1003.2
12 14.09 ЮЗ 9 2000 м пыль 3/3 600 м
[]
+31.0 +25.4 72 +45 +45 опасность
перегрева
1003.1 1001.8 +32.0
06 15.09 ЮЗ 7 2000 м мгла 5/3 600 м
[St Ci fib]
+32.0 +25.8 70 +47 +50 опасность
перегрева
1008.3 1007.0
09 15.09 ЮЗ 10 2000 м пыль 4/0
[Ac trans Ci fib]
+31.5 +25.2 69 +45 +46 опасность
перегрева
1005.8 1004.7
12 15.09 ЮЗ 13 2000 м пыльный позёмок 3/0 600 м
[Ac trans]
+31.0 +26.1 75 +46 +46 опасность
перегрева
1004.4 1003.1 +32.0
18 15.09 0 н/о
21 15.09 0 н/о
06 16.09 З 7 4000 м мгла 5/0
[Ac trans Ci fib]
+30.5 +24.9 72 +44 +47 опасность
перегрева
1006.2 1004.9
09 16.09 ЮЗ 13 2000 м пыльный позёмок 4/0
[Ci fib]
+31.0 +25.4 72 +45 +45 опасность
перегрева
1003.9 1002.8
12 16.09 ЮЗ 12 2000 м пыльный позёмок 3/0 600 м
[Ci fib]
+30.0 +25.1 75 +43 +43 опасность
перегрева
1002.6 1001.3 +31.0

 

Местоположение метеостанции Ормара (Пакистан): широта 25.27 долгота 64.58 высота над уровнем моря 10 м.

В архиве по умолчанию представлена погода в Ормаре за последнюю неделю. Архивные данные за месяц целиком и за предыдущие месяцы, начиная с января 2011 года, Вы можете получить, выбрав интересующий диапазон дат из раскрывающегося списка и нажав кнопку "Ввод!".


*Определитесь, кто Вы:
робот инопланетянин человек

Внимание! Время в таблицах - всемирное. Для получения местного времени необходимо прибавить поправку, которая равна 5 ч.

Смотрите также архив погоды в соседних городах и на ближайших метеорологических станциях:

Погода в Ласбеле (Пакистан) (83 км)
Погода в Пасни (Пакистан) (111 км)
Погода в Панджгуре (Пакистан) (195 км)
Погода в Гавадаре (Пакистан) (227 км)
Погода в Карачи (Пакистан) (260 км)
Погода в Даду (Пакистан) (271 км)
Погода в Дживани (Пакистан) (281 км)
Погода в Сараване (Иран) (321 км)
Погода в Татте (Пакистан) (340 км)
Погода в Хуздаре (Пакистан) (350 км)

Пояснения к столбцам:

Ветер - указаны скорость ветра в м/с - средняя за 10 мин, порывы в срок и между сроками (в фигурных скобках) и направление, откуда дует ветер: С - северный, СВ - северо-восточный, В - восточный, ЮВ - юго-восточный, Ю - южный, ЮЗ - юго-западный, З - западный, СЗ - северо-западный.
Видимость - горизонтальная дальность видимости в метрах или километрах. При видимости от 1 до 10 км при отсутствии осадков обычно наблюдается дымка, при ухудшении видимости до 1 км и менее - туман. В сухую погоду видимость может ухудшаться дымом, пылью или мглою.
Явления - указаны атмосферные явления, наблюдавшиеся в срок или в последний час перед сроком; фигурными скобками обозначены явления, наблюдавшиеся между сроками (за 1-3 часа до срока); квадратными скобками обозначены град или гололедные отложения с указанием их диаметра в мм.
Облачность - указаны через наклонную черту общая и нижняя облачность в баллах и высота нижней границы облаков в метрах; квадратными скобками обозначены формы облаков: Ci - перистые, Cs - перисто-слоистые, Cc - перисто-кучевые, Ac - высококучевые, As - высокослоистые, Sc - слоисто-кучевые, Ns - слоисто-дождевые, Cu - кучевые, Cb - кучево-дождевые. Подробнее классификацию облаков см. в Атласе облаков (PDF).
T - Температура воздуха - температура, измеренная на высоте 2 м над землей.
Td - Температура точки росы - температура, при понижении до которой содержащийся в воздухе водяной пар достигнет насыщения.
f - Относительная влажность воздуха - влажноcть воздуха, измеренная на высоте 2 м над землей.
Te - Эффективная температура - температура, которую ощущает одетый по сезону человек в тени. Характеристика душности погоды. При расчете учитывается влияние влажности воздуха и скорости ветра на теплоощущения человека.
Tes - Эффективная температура на солнце - температура, которую ощущает человек, с поправкой на солнечный нагрев. Характеристика знойности погоды. Зависит от высоты солнца над горизонтом, облачности и скорости ветра. Ночью, в пасмурную погоду, а также при ветре 12 м/с и более поправка равна нулю.
P - Атмосферное давление - приведенное к уровню моря атмосферное давление.
Po - Атмосферное давление - измеренное на уровне метеостанции атмосферное давление.
Tmin - Минимальная температура - минимум температуры воздуха на высоте 2 м над землей.
Tmax - Максимальная температура - максимум температуры воздуха на высоте 2 м над землей.
R - Количество осадков - Количество выпавших осадков за период времени, мм. При наведении курсора мыши на число - период времени, за который выпало указанное количество осадков.
R24 - Количество осадков - Количество выпавших осадков за 24 часа, мм.
S - Снежный покров - Высота снежного покрова, см. При наведении курсора мыши на число - состояние снежного покрова и степень покрытия местности в баллах.